Weather History for KHSV - June, 2014

Change the Weather History Date:

Wednesday, June 18, 2014

  Actual Average Record
Temperature  
Mean Temperature 83 °F 78 °F  
Max Temperature 94 °F 89 °F 104 °F (1936)
Min Temperature 72 °F 68 °F 52 °F (1941)
Degree Days  
Heating Degree Days 0 0  
Month to date heating degree days 0 0  
Since 1 June heating degree days 0 0  
Since 1 July heating degree days 3463 3001  
Cooling Degree Days 18 13  
Month to date cooling degree days 216 208  
Year to date cooling degree days 487 471  
Since 1 June cooling degree days 216 208  
Growing Degree Days 32 (Base 50)    
Moisture  
Dew Point 70 °F    
Average Humidity 69    
Maximum Humidity 93    
Minimum Humidity 44    
Precipitation  
Precipitation 0.00 in 0.14 in 1.26 in (1939)
Month to date precipitation 5.86 2.54  
Year to date precipitation 29.33 26.91  
Snow  
Snow 0.00 in - - ()
Month to date snowfall 0.0  
Since 1 June snowfall 0.0  
Since 1 July snowfall 5.2  
Snow Depth 0.00 in    
Sea Level Pressure  
Sea Level Pressure 30.09 in    
Wind  
Wind Speed 4 mph (SSW)    
Max Wind Speed 25 mph    
Max Gust Speed 28 mph    
Visibility 10 miles    
Events      
T = Trace of Precipitation, MM = Missing Value Source: NWS Daily Summary

Daily Weather History Graph

Daily Weather History Graph

Search for Another Location

Airport or City:

Trip Planner

Search our weather history database for the weather conditions in past years. The results will help you decide how hot, cold, wet, or windy it might be!

Date:

Astronomy

Jun. 18, 2014 Rise Set
Actual Time 5:34 AM CDT 8:02 PM CDT
Civil Twilight 5:04 AM CDT 8:32 PM CDT
Nautical Twilight 4:28 AM CDT 9:08 PM CDT
Astronomical Twilight 3:47 AM CDT 9:48 PM CDT
Moon No Moon Rise 11:42 AM CDT (6/18)
Length of Visible Light 15h 27m
Length of Day
14h 28m
Waning Gibbous, 62% of the Moon is Illuminated
Jun 18
Waning Gibbous
Jun 19
Last Quarter
Jun 27
New
Jul 5
First Quarter
Jul 12
Full

Hourly Weather History & Observations

Time (CDT) Temp. Heat Index Dew Point Humidity Pressure Visibility Wind Dir Wind Speed Gust Speed Precip Events Conditions
12:53 AM 77.0 °F - 72.0 °F 84% 30.09 in 10.0 mi Calm Calm - N/A   Clear
1:53 AM 75.9 °F - 72.0 °F 87% 30.08 in 10.0 mi Calm Calm - N/A   Clear
2:53 AM 75.0 °F - 71.1 °F 87% 30.08 in 10.0 mi East 3.5 mph - N/A   Clear
3:53 AM 73.0 °F - 70.0 °F 90% 30.07 in 8.0 mi Calm Calm - N/A   Clear
4:53 AM 73.9 °F - 71.1 °F 91% 30.08 in 10.0 mi Calm Calm - N/A   Clear
5:53 AM 73.9 °F - 70.0 °F 87% 30.10 in 8.0 mi Calm Calm - N/A   Scattered Clouds
6:53 AM 75.0 °F - 71.1 °F 87% 30.11 in 8.0 mi Calm Calm - N/A   Scattered Clouds
7:53 AM 80.1 °F 83.6 °F 71.1 °F 74% 30.12 in 10.0 mi East 3.5 mph - N/A   Partly Cloudy
8:53 AM 82.9 °F 87.5 °F 71.1 °F 67% 30.12 in 10.0 mi Calm Calm - N/A   Partly Cloudy
9:53 AM 88.0 °F 92.9 °F 70.0 °F 55% 30.13 in 10.0 mi Variable 3.5 mph - N/A   Scattered Clouds
10:53 AM 89.1 °F 93.7 °F 69.1 °F 52% 30.13 in 10.0 mi Calm Calm - N/A   Scattered Clouds
11:53 AM 89.1 °F 92.1 °F 66.9 °F 48% 30.13 in 10.0 mi WSW 3.5 mph - N/A   Mostly Cloudy
12:53 PM 90.0 °F 94.5 °F 69.1 °F 50% 30.10 in 10.0 mi West 4.6 mph - N/A   Mostly Cloudy
1:53 PM 91.0 °F 93.8 °F 66.0 °F 44% 30.09 in 10.0 mi SW 8.1 mph - N/A   Mostly Cloudy
2:43 PM 91.4 °F 95.4 °F 68.0 °F 46% 30.10 in 10.0 mi WSW 4.6 mph - N/A   Mostly Cloudy
2:53 PM 90.0 °F 94.5 °F 69.1 °F 50% 30.07 in 10.0 mi West 6.9 mph - N/A   Mostly Cloudy
3:53 PM 93.0 °F 97.9 °F 69.1 °F 45% 30.06 in 10.0 mi West 3.5 mph - N/A   Mostly Cloudy
4:53 PM 91.9 °F 95.9 °F 68.0 °F 45% 30.05 in 10.0 mi West 5.8 mph - N/A   Mostly Cloudy
5:53 PM 91.0 °F 95.2 °F 68.0 °F 47% 30.05 in 10.0 mi SSW 5.8 mph - N/A   Mostly Cloudy
6:53 PM 90.0 °F 92.8 °F 66.9 °F 46% 30.06 in 10.0 mi South 6.9 mph - N/A   Mostly Cloudy
7:53 PM 84.9 °F 90.1 °F 71.1 °F 63% 30.05 in 10.0 mi South 8.1 mph - N/A   Mostly Cloudy
8:53 PM 81.0 °F 84.4 °F 70.0 °F 69% 30.08 in 10.0 mi South 3.5 mph - N/A   Mostly Cloudy
9:53 PM 80.1 °F 82.9 °F 69.1 °F 69% 30.09 in 10.0 mi SSE 4.6 mph - N/A   Mostly Cloudy
10:53 PM 78.1 °F - 69.1 °F 74% 30.10 in 10.0 mi Calm Calm - N/A   Scattered Clouds
11:53 PM 78.1 °F - 70.0 °F 76% 30.10 in 10.0 mi ESE 5.8 mph - N/A   Partly Cloudy